Madison, SD

5:29 AM CST on December 14, 2019 (GMT -0600)
Madison Municipal

Weather History for KMDS - October, 2019

Change the Weather History Date:

Thursday, October 3, 2019

  Actual Average Record
Temperature  
Mean Temperature 40 °F -  
Max Temperature 44 °F 66 °F 80 °F (2011)
Min Temperature 37 °F 41 °F 33 °F (2014)
Degree Days  
Heating Degree Days 24    
Moisture  
Dew Point 40 °F    
Average Humidity 97    
Maximum Humidity 100    
Minimum Humidity 87    
Precipitation  
Precipitation 0.00 in - - ()
Sea Level Pressure  
Sea Level Pressure 30.27 in    
Wind  
Wind Speed 11 mph ()    
Max Wind Speed 18 mph    
Max Gust Speed 23 mph    
Visibility 9.9 miles    
Events      
Averages and records for this station are not official NWS values.
T = Trace of Precipitation, MM = Missing Value Source: Averaged Metar Reports

Daily Weather History Graph

Daily Weather History Graph

Search for Another Location

Airport or City:

Astronomy

Oct. 03, 2019 Rise Set
Actual Time 7:28 AM CDT 7:05 PM CDT
Civil Twilight 6:59 AM CDT 7:34 PM CDT
Nautical Twilight 6:25 AM CDT 8:08 PM CDT
Astronomical Twilight 5:52 AM CDT 8:41 PM CDT
Moon 1:11 PM CDT (10/3) 10:35 PM CDT (10/3)
Length of Visible Light 12h 35m
Length of Day
11h 37m
Waxing Crescent, 30% of the Moon is Illuminated
Oct 3
Waxing Crescent
Oct 5
First Quarter
Oct 13
Full
Oct 21
Last Quarter
Oct 27
New

Hourly Weather History & Observations

Time (CDT) Temp. Windchill Dew Point Humidity Pressure Visibility Wind Dir Wind Speed Gust Speed Precip Events Conditions
12:15 AM 42.8 °F 37.5 °F 42.8 °F 100% 30.10 in 10.0 mi NW 9.2 mph - N/A   Overcast
12:20 AM 42.8 °F 37.0 °F 42.8 °F 100% 30.10 in 10.0 mi NW 10.4 mph - N/A   Overcast
12:35 AM 42.8 °F 37.0 °F 42.8 °F 100% 30.10 in 7.0 mi NW 10.4 mph - N/A   Overcast
12:40 AM 42.8 °F 37.5 °F 42.8 °F 100% 30.10 in 8.0 mi NW 9.2 mph - N/A   Overcast
12:55 AM 42.8 °F 37.0 °F 42.8 °F 100% 30.10 in 10.0 mi WNW 10.4 mph - N/A   Overcast
1:00 AM 42.8 °F 37.5 °F 42.8 °F 100% 30.10 in 10.0 mi WNW 9.2 mph - N/A   Overcast
1:15 AM 42.8 °F 36.2 °F 42.8 °F 100% 30.11 in 10.0 mi WNW 12.7 mph 18.4 mph N/A   Overcast
1:20 AM 42.8 °F 36.6 °F 42.8 °F 100% 30.11 in 10.0 mi WNW 11.5 mph 18.4 mph N/A   Overcast
1:35 AM 42.8 °F 35.4 °F 42.8 °F 100% 30.12 in 10.0 mi WNW 15.0 mph - N/A   Overcast
2:15 AM 41.0 °F 32.8 °F 41.0 °F 100% 30.12 in 9.0 mi NW 16.1 mph 19.6 mph N/A   Overcast
2:20 AM 41.0 °F 33.1 °F 41.0 °F 100% 30.13 in 10.0 mi NW 15.0 mph 19.6 mph N/A   Overcast
2:35 AM 41.0 °F 33.1 °F 41.0 °F 100% 30.14 in 10.0 mi NW 15.0 mph 20.7 mph N/A   Overcast
2:55 AM 41.0 °F 33.5 °F 41.0 °F 100% 30.14 in 10.0 mi NW 13.8 mph - N/A   Overcast
3:00 AM 41.0 °F 32.2 °F 41.0 °F 100% 30.14 in 10.0 mi NW 18.4 mph - N/A   Overcast
3:15 AM 41.0 °F 32.8 °F 41.0 °F 100% 30.14 in 10.0 mi NW 16.1 mph 21.9 mph N/A   Overcast
3:20 AM 41.0 °F 33.1 °F 41.0 °F 100% 30.14 in 10.0 mi NW 15.0 mph 21.9 mph N/A   Overcast
3:35 AM 41.0 °F 32.5 °F 41.0 °F 100% 30.15 in 10.0 mi NW 17.3 mph 23.0 mph N/A   Overcast
3:55 AM 39.2 °F 30.5 °F 39.2 °F 100% 30.15 in 10.0 mi WNW 16.1 mph 23.0 mph N/A   Overcast
4:15 AM 39.2 °F 31.6 °F 39.2 °F 100% 30.16 in 10.0 mi WNW 12.7 mph 20.7 mph N/A   Overcast
4:20 AM 39.2 °F 31.2 °F 39.2 °F 100% 30.16 in 10.0 mi WNW 13.8 mph 20.7 mph N/A   Overcast
4:35 AM 39.2 °F 30.5 °F 39.2 °F 100% 30.16 in 10.0 mi NW 16.1 mph 19.6 mph N/A   Overcast
4:55 AM 39.2 °F 30.5 °F 39.2 °F 100% 30.17 in 10.0 mi NW 16.1 mph 23.0 mph N/A   Overcast
5:15 AM 39.2 °F 32.5 °F 39.2 °F 100% 30.18 in 10.0 mi NW 10.4 mph - N/A   Overcast
5:35 AM 39.2 °F 31.6 °F 39.2 °F 100% 30.19 in 10.0 mi NW 12.7 mph - N/A   Overcast
5:40 AM 39.2 °F 31.6 °F 39.2 °F 100% 30.19 in 10.0 mi NW 12.7 mph 17.3 mph N/A   Overcast
5:55 AM 39.2 °F 31.6 °F 39.2 °F 100% 30.19 in 10.0 mi NW 12.7 mph 18.4 mph N/A   Overcast
6:15 AM 39.2 °F 33.0 °F 39.2 °F 100% 30.20 in 10.0 mi NW 9.2 mph - N/A   Overcast
6:20 AM 39.2 °F 32.5 °F 39.2 °F 100% 30.20 in 10.0 mi NW 10.4 mph - N/A   Overcast
6:35 AM 39.2 °F 31.6 °F 39.2 °F 100% 30.20 in 10.0 mi WNW 12.7 mph - N/A   Overcast
6:55 AM 39.2 °F 32.5 °F 39.2 °F 100% 30.21 in 10.0 mi NW 10.4 mph 17.3 mph N/A   Overcast
7:00 AM 39.2 °F 30.2 °F 39.2 °F 100% 30.21 in 10.0 mi NW 17.3 mph - N/A   Overcast
7:15 AM 37.4 °F 28.2 °F 37.4 °F 100% 30.22 in 10.0 mi NW 16.1 mph 19.6 mph N/A   Overcast
7:35 AM 37.4 °F 28.5 °F 37.4 °F 100% 30.23 in 10.0 mi NW 15.0 mph 20.7 mph N/A   Overcast
7:40 AM 39.2 °F 31.6 °F 39.2 °F 100% 30.23 in 10.0 mi NW 12.7 mph 19.6 mph N/A   Overcast
7:55 AM 39.2 °F 30.8 °F 39.2 °F 100% 30.23 in 10.0 mi NW 15.0 mph - N/A   Overcast
8:00 AM 39.2 °F 31.2 °F 39.2 °F 100% 30.23 in 10.0 mi NW 13.8 mph - N/A   Overcast
8:15 AM 37.4 °F 29.8 °F 37.4 °F 100% 30.24 in 10.0 mi NW 11.5 mph - N/A   Overcast
8:20 AM 37.4 °F 29.8 °F 37.4 °F 100% 30.24 in 10.0 mi WNW 11.5 mph - N/A   Overcast
8:35 AM 37.4 °F 29.8 °F 37.4 °F 100% 30.25 in 10.0 mi WNW 11.5 mph - N/A   Overcast
8:55 AM 37.4 °F 28.9 °F 37.4 °F 100% 30.25 in 10.0 mi NW 13.8 mph - N/A   Overcast
9:00 AM 37.4 °F 29.8 °F 37.4 °F 100% 30.25 in 10.0 mi NW 11.5 mph - N/A   Overcast
9:15 AM 39.2 °F 31.6 °F 39.2 °F 100% 30.26 in 10.0 mi NW 12.7 mph - N/A   Overcast
9:20 AM 39.2 °F 30.8 °F 39.2 °F 100% 30.26 in 10.0 mi NW 15.0 mph - N/A   Overcast
9:35 AM 39.2 °F 31.6 °F 39.2 °F 100% 30.26 in 10.0 mi NW 12.7 mph - N/A   Overcast
9:55 AM 39.2 °F 32.0 °F 39.2 °F 100% 30.27 in 10.0 mi NW 11.5 mph - N/A   Overcast
10:00 AM 39.2 °F 31.2 °F 39.2 °F 100% 30.27 in 10.0 mi NW 13.8 mph - N/A   Overcast
10:15 AM 39.2 °F 31.6 °F 39.2 °F 100% 30.28 in 10.0 mi NW 12.7 mph 16.1 mph N/A   Overcast
10:20 AM 39.2 °F 31.6 °F 39.2 °F 100% 30.28 in 10.0 mi WNW 12.7 mph 16.1 mph N/A   Overcast
10:35 AM 39.2 °F 32.0 °F 39.2 °F 100% 30.29 in 10.0 mi NW 11.5 mph - N/A   Overcast
10:55 AM 39.2 °F 31.2 °F 39.2 °F 100% 30.29 in 10.0 mi NW 13.8 mph - N/A   Overcast
11:15 AM 39.2 °F 31.6 °F 39.2 °F 100% 30.30 in 10.0 mi WNW 12.7 mph - N/A   Overcast
11:20 AM 41.0 °F 33.9 °F 41.0 °F 100% 30.30 in 10.0 mi WNW 12.7 mph - N/A   Overcast
11:35 AM 39.2 °F 32.0 °F 39.2 °F 100% 30.30 in 10.0 mi WNW 11.5 mph - N/A   Overcast
11:40 AM 41.0 °F 34.7 °F 41.0 °F 100% 30.30 in 10.0 mi NNW 10.4 mph - N/A   Overcast
11:55 AM 41.0 °F 33.5 °F 41.0 °F 100% 30.31 in 10.0 mi WNW 13.8 mph - N/A   Overcast
12:00 PM 41.0 °F 34.3 °F 41.0 °F 100% 30.31 in 10.0 mi NW 11.5 mph 16.1 mph N/A   Overcast
12:15 PM 41.0 °F 34.3 °F 41.0 °F 100% 30.31 in 10.0 mi NW 11.5 mph - N/A   Overcast
12:20 PM 41.0 °F 34.3 °F 41.0 °F 100% 30.31 in 10.0 mi WNW 11.5 mph - N/A   Overcast
12:35 PM 41.0 °F 33.5 °F 41.0 °F 100% 30.31 in 10.0 mi WNW 13.8 mph - N/A   Overcast
12:40 PM 41.0 °F 34.3 °F 41.0 °F 100% 30.31 in 10.0 mi NW 11.5 mph - N/A   Overcast
12:55 PM 41.0 °F 34.7 °F 41.0 °F 100% 30.32 in 10.0 mi NW 10.4 mph - N/A   Overcast
1:15 PM 41.0 °F 33.9 °F 41.0 °F 100% 30.33 in 10.0 mi WNW 12.7 mph 16.1 mph N/A   Overcast
1:20 PM 41.0 °F 35.2 °F 41.0 °F 100% 30.33 in 10.0 mi West 9.2 mph 16.1 mph N/A   Overcast
1:35 PM 42.8 °F 36.2 °F 41.0 °F 93% 30.33 in 10.0 mi WNW 12.7 mph 16.1 mph N/A   Overcast
1:40 PM 42.8 °F 36.6 °F 41.0 °F 93% 30.33 in 10.0 mi WNW 11.5 mph - N/A   Overcast
1:55 PM 44.6 °F 38.1 °F 41.0 °F 87% 30.33 in 10.0 mi WNW 13.8 mph - N/A   Overcast
2:00 PM 42.8 °F 36.6 °F 41.0 °F 93% 30.33 in 10.0 mi NW 11.5 mph - N/A   Overcast
2:15 PM 42.8 °F 36.2 °F 41.0 °F 93% 30.32 in 10.0 mi WNW 12.7 mph - N/A   Overcast
2:35 PM 44.6 °F 39.2 °F 41.0 °F 87% 30.32 in 10.0 mi NW 10.4 mph - N/A   Overcast
2:40 PM 44.6 °F 38.8 °F 41.0 °F 87% 30.32 in 10.0 mi NW 11.5 mph - N/A   Overcast
2:55 PM 44.6 °F 38.8 °F 41.0 °F 87% 30.31 in 10.0 mi NW 11.5 mph 16.1 mph N/A   Overcast
3:00 PM 44.6 °F 39.2 °F 41.0 °F 87% 30.31 in 10.0 mi NW 10.4 mph - N/A   Overcast
3:15 PM 44.6 °F 39.2 °F 41.0 °F 87% 30.32 in 10.0 mi WNW 10.4 mph - N/A   Overcast
3:35 PM 44.6 °F 39.7 °F 41.0 °F 87% 30.33 in 10.0 mi NW 9.2 mph - N/A   Overcast
3:55 PM 44.6 °F 38.8 °F 41.0 °F 87% 30.33 in 10.0 mi NW 11.5 mph - N/A   Overcast
4:00 PM 44.6 °F 38.8 °F 41.0 °F 87% 30.33 in 10.0 mi NW 11.5 mph - N/A   Overcast
4:15 PM 44.6 °F 38.8 °F 41.0 °F 87% 30.33 in 10.0 mi NNW 11.5 mph - N/A   Overcast
4:20 PM 44.6 °F 39.2 °F 41.0 °F 87% 30.33 in 10.0 mi NNW 10.4 mph - N/A   Overcast
4:35 PM 44.6 °F 38.8 °F 41.0 °F 87% 30.33 in 10.0 mi NNW 11.5 mph - N/A   Overcast
4:40 PM 44.6 °F 39.7 °F 41.0 °F 87% 30.33 in 10.0 mi NW 9.2 mph - N/A   Overcast
4:55 PM 44.6 °F 39.2 °F 41.0 °F 87% 30.33 in 10.0 mi NNW 10.4 mph - N/A   Overcast
5:00 PM 44.6 °F 38.8 °F 41.0 °F 87% 30.33 in 10.0 mi NNW 11.5 mph - N/A   Overcast
5:15 PM 44.6 °F 40.2 °F 41.0 °F 87% 30.34 in 10.0 mi NNW 8.1 mph - N/A   Overcast
5:35 PM 44.6 °F 40.2 °F 41.0 °F 87% 30.34 in 10.0 mi NNW 8.1 mph - N/A   Overcast
5:40 PM 42.8 °F 37.0 °F 41.0 °F 93% 30.34 in 10.0 mi NNW 10.4 mph - N/A   Overcast
5:55 PM 42.8 °F 38.6 °F 39.2 °F 87% 30.34 in 10.0 mi NNW 6.9 mph - N/A   Overcast
6:00 PM 42.8 °F 38.6 °F 39.2 °F 87% 30.34 in 10.0 mi North 6.9 mph - N/A   Overcast
6:15 PM 42.8 °F 38.0 °F 41.0 °F 93% 30.34 in 10.0 mi NNW 8.1 mph - N/A   Overcast
6:35 PM 42.8 °F 38.6 °F 41.0 °F 93% 30.34 in 10.0 mi North 6.9 mph - N/A   Overcast
6:40 PM 42.8 °F 37.5 °F 41.0 °F 93% 30.34 in 10.0 mi North 9.2 mph - N/A   Overcast
6:55 PM 41.0 °F 35.2 °F 41.0 °F 100% 30.34 in 10.0 mi NNE 9.2 mph - N/A   Overcast
7:15 PM 41.0 °F 34.3 °F 39.2 °F 93% 30.34 in 10.0 mi North 11.5 mph - N/A   Overcast
7:35 PM 41.0 °F 35.8 °F 39.2 °F 93% 30.34 in 10.0 mi NNE 8.1 mph - N/A   Overcast
7:40 PM 41.0 °F 36.4 °F 39.2 °F 93% 30.34 in 10.0 mi North 6.9 mph - N/A   Overcast
7:55 PM 41.0 °F 35.8 °F 39.2 °F 93% 30.34 in 10.0 mi North 8.1 mph - N/A   Overcast
8:00 PM 41.0 °F 35.2 °F 39.2 °F 93% 30.34 in 10.0 mi North 9.2 mph - N/A   Overcast
8:15 PM 41.0 °F 38.0 °F 39.2 °F 93% 30.35 in 10.0 mi NE 4.6 mph - N/A   Overcast
8:35 PM 41.0 °F 37.1 °F 41.0 °F 100% 30.36 in 10.0 mi NNE 5.8 mph - N/A   Overcast
8:40 PM 41.0 °F 39.0 °F 41.0 °F 100% 30.36 in 10.0 mi NE 3.5 mph - N/A   Overcast
8:55 PM 41.0 °F 36.4 °F 39.2 °F 93% 30.36 in 10.0 mi NNE 6.9 mph - N/A   Overcast
9:00 PM 41.0 °F 37.1 °F 39.2 °F 93% 30.36 in 10.0 mi NNE 5.8 mph - N/A   Overcast
9:15 PM 41.0 °F 36.4 °F 39.2 °F 93% 30.36 in 10.0 mi NE 6.9 mph - N/A   Overcast
9:35 PM 41.0 °F 37.1 °F 41.0 °F 100% 30.35 in 10.0 mi NE 5.8 mph - N/A   Overcast
9:55 PM 39.2 °F 34.2 °F 39.2 °F 100% 30.35 in 10.0 mi NE 6.9 mph - N/A   Overcast
10:00 PM 39.2 °F 34.2 °F 39.2 °F 100% 30.35 in 10.0 mi NE 6.9 mph - N/A   Overcast
10:15 PM 39.2 °F 34.2 °F 39.2 °F 100% 30.36 in 10.0 mi ENE 6.9 mph - N/A   Overcast
10:20 PM 39.2 °F 33.6 °F 39.2 °F 100% 30.36 in 10.0 mi NE 8.1 mph - N/A   Overcast
10:35 PM 39.2 °F 35.9 °F 39.2 °F 100% 30.36 in 10.0 mi ENE 4.6 mph - N/A   Overcast
10:55 PM 41.0 °F 35.2 °F 39.2 °F 93% 30.37 in 10.0 mi ENE 9.2 mph - N/A   Overcast
11:00 PM 41.0 °F 34.7 °F 39.2 °F 93% 30.37 in 10.0 mi East 10.4 mph - N/A   Overcast
11:15 PM 41.0 °F 35.8 °F 39.2 °F 93% 30.38 in 10.0 mi East 8.1 mph - N/A   Overcast
11:35 PM 39.2 °F 33.6 °F 39.2 °F 100% 30.38 in 10.0 mi ENE 8.1 mph - N/A   Overcast
11:40 PM 39.2 °F 34.2 °F 39.2 °F 100% 30.38 in 10.0 mi ESE 6.9 mph - N/A   Overcast
11:55 PM 39.2 °F 35.0 °F 39.2 °F 100% 30.38 in 10.0 mi East 5.8 mph - N/A   Overcast